STARLINK-30041 (57613 NORAD) Tracking and Keplerian Element Data

This shows tracking and keplerian element data for the satellite.

Feedback or suggestion? Click here.




ElementValue
Catalog57613
NameSTARLINK-30041
Epoch Orbit376
Epoch Day239.16667824
Epoch Year2023
RAAN77.7305
Inclination43.0009
Eccentricity0.0004112
Argument of Perigee201.0564
Mean Anonmoly57.7475
Mean Motion15.74553866
Decay Rate-0.0087452
L11 57613U 23119M 23239.16667824 -.00874520 00000+0 -64355-2 0 9999
L22 57613 43.0009 77.7305 0004112 201.0564 57.7475 15.74553866 3766



Live tracking and technical data element details for STARLINK-30041 (NORAD 57613). STARLINK-30041 can be tracked NOW for your location showing map with azimuth and elevation plus other details from your city location.







IsCatalogInMostPopularTable: catalog: 57613, numindb: 8
Update: records affected: 1



GetName: 57613 STARLINK-30041

Hit Count: updated at: Tue, 26 Sep 2023 11:45:39 GMT